Flagstaff, AZ

3:36 AM MST on September 27, 2016 (GMT -0700)
Flagstaff Pulliam

Weather History for KFLG - December, 2012

Change the Weather History Date:

Wednesday, December 26, 2012

  Actual Average Record
Temperature  
Mean Temperature 21 °F 29 °F  
Max Temperature 31 °F 42 °F 63 °F (1980)
Min Temperature 11 °F 16 °F -16 °F (1924)
Degree Days  
Heating Degree Days 44 36  
Month to date heating degree days 898 917  
Since 1 July heating degree days 2341 2649  
Cooling Degree Days 0 0  
Month to date cooling degree days 0 0  
Year to date cooling degree days 164 117  
Moisture  
Dew Point 20 °F    
Average Humidity 69    
Maximum Humidity 92    
Minimum Humidity 46    
Precipitation  
Precipitation 0.04 in 0.06 in 1.83 in (1971)
Month to date precipitation 1.92 1.53  
Year to date precipitation 14.73 21.52  
Snow  
Snow 0.60 in 0.60 in 14.10 in (1979)
Month to date snowfall 25.3 13.9  
Since 1 July snowfall 26.4 26.1  
Snow Depth 9.00 in    
Sea Level Pressure  
Sea Level Pressure 29.83 in    
Wind  
Wind Speed 7 mph (SW)    
Max Wind Speed 22 mph    
Max Gust Speed 29 mph    
Visibility 6 miles    
Events Snow    
T = Trace of Precipitation, MM = Missing Value Source: NWS Daily Summary

Daily Weather History Graph

Daily Weather History Graph

Search for Another Location

Airport or City:

Trip Planner

Search our weather history database for the weather conditions in past years. The results will help you decide how hot, cold, wet, or windy it might be!

Date:

Astronomy

Dec. 26, 2012 Rise Set
Actual Time 7:33 AM MST 5:21 PM MST
Civil Twilight 7:05 AM MST 5:49 PM MST
Nautical Twilight 6:33 AM MST 6:21 PM MST
Astronomical Twilight 6:02 AM MST 6:52 PM MST
Moon 4:17 PM MST (12/26) 6:01 AM MST (12/26)
Length of Visible Light 10h 44m
Length of Day
9h 48m
Waxing Gibbous, 98% of the Moon is Illuminated
Dec 26
Waxing Gibbous
Dec 28
Full
Jan 4
Last Quarter
Jan 11
New
Jan 18
First Quarter

Hourly Weather History & Observations

Time (MST) Temp. Windchill Dew Point Humidity Pressure Visibility Wind Dir Wind Speed Gust Speed Precip Events Conditions
9:57 AM 26.1 °F 14.0 °F 9.0 °F 49% 29.95 in 10.0 mi SSW 15.0 mph - N/A   Clear
10:57 AM 28.9 °F 16.5 °F 12.9 °F 51% 29.93 in 10.0 mi SW 18.4 mph 27.6 mph N/A   Mostly Cloudy
11:57 AM 30.0 °F 20.0 °F 12.0 °F 47% 29.89 in 10.0 mi SSW 12.7 mph 19.6 mph N/A   Overcast
12:57 PM 30.0 °F 19.5 °F 12.9 °F 49% 29.87 in 10.0 mi SW 13.8 mph - N/A   Overcast
1:57 PM 30.0 °F 20.0 °F 16.0 °F 56% 29.84 in 10.0 mi SSW 12.7 mph - 0.00 in   Overcast
2:57 PM 28.9 °F 16.9 °F 16.0 °F 58% 29.83 in 10.0 mi SSW 17.3 mph - N/A   Overcast
3:57 PM 30.0 °F 21.1 °F 17.1 °F 59% 29.81 in 10.0 mi SW 10.4 mph 19.6 mph 0.00 in   Overcast
4:57 PM 28.0 °F 18.6 °F 23.0 °F 81% 29.83 in 1.8 mi WSW 10.4 mph - 0.00 in Snow Light Snow
5:14 PM 26.6 °F 16.8 °F 24.8 °F 93% 29.77 in 0.8 mi WSW 10.4 mph - 0.00 in Snow Light Snow
5:35 PM 26.6 °F 16.8 °F 24.8 °F 93% 29.77 in 0.8 mi SW 10.4 mph - 0.01 in Snow Light Snow
5:57 PM 26.1 °F 16.2 °F 24.1 °F 92% 29.85 in 1.0 mi SW 10.4 mph - 0.02 in Snow Light Snow
6:05 PM 26.6 °F 19.1 °F 24.8 °F 93% 29.77 in 2.0 mi WSW 6.9 mph - 0.00 in Snow Light Snow
6:17 PM 26.6 °F 14.7 °F 23.0 °F 86% 29.78 in 1.2 mi WSW 15.0 mph 21.9 mph 0.01 in Snow Light Snow
6:30 PM 26.6 °F 16.8 °F 21.2 °F 80% 29.78 in 0.8 mi WSW 10.4 mph 19.6 mph 0.01 in Snow Light Snow
6:44 PM 24.8 °F 16.1 °F 23.0 °F 93% 29.79 in 1.2 mi WSW 8.1 mph - 0.02 in Snow Light Snow
6:57 PM 25.0 °F 17.1 °F 21.9 °F 88% 29.88 in 1.5 mi WSW 6.9 mph - 0.02 in Snow Light Snow
7:05 PM 24.8 °F 16.9 °F 21.2 °F 86% 29.80 in 3.0 mi SW 6.9 mph - 0.00 in Snow Light Snow
7:19 PM 24.8 °F 15.3 °F 21.2 °F 86% 29.80 in 1.8 mi SW 9.2 mph - 0.00 in Snow Light Snow
7:28 PM 24.8 °F 16.1 °F 21.2 °F 86% 29.80 in 3.0 mi SW 8.1 mph - 0.00 in Snow Light Snow
7:57 PM 24.1 °F 14.4 °F 21.0 °F 88% 29.90 in 10.0 mi SW 9.2 mph - 0.00 in   Mostly Cloudy
8:57 PM 24.1 °F 12.5 °F 19.9 °F 84% 29.85 in 10.0 mi WSW 12.7 mph - N/A   Overcast
9:57 PM 21.9 °F - 19.0 °F 89% 29.86 in 10.0 mi Calm Calm - N/A   Overcast
10:11 PM 21.2 °F 11.7 °F 19.4 °F 93% 29.83 in 10.0 mi SSW 8.1 mph - N/A   Overcast
10:18 PM 21.2 °F 10.9 °F 19.4 °F 93% 29.83 in 10.0 mi SSW 9.2 mph - N/A   Overcast
10:29 PM 21.2 °F 10.9 °F 19.4 °F 93% 29.83 in 8.0 mi SSW 9.2 mph - N/A   Overcast
10:57 PM 21.9 °F 13.4 °F 19.0 °F 89% 29.85 in 10.0 mi SSW 6.9 mph - N/A   Overcast
11:05 PM 23.0 °F 13.9 °F 19.4 °F 86% 29.84 in 10.0 mi SW 8.1 mph - N/A   Overcast
11:57 PM 23.0 °F 13.9 °F 19.9 °F 88% 29.85 in 9.0 mi SW 8.1 mph - 0.00 in Snow Light Snow